[[{"header":{"parameterUnit":"m.s-1","parameterCategory":1,"la1":30.2991,"la2":30.254,"lo1":-89.0895,"lo2":-89.0444,"dy":0.0017,"dx":0.0017,"nx":28,"ny":28,"refTime":"2025-07-23T09:00:00:Z","depth":0,"parameterNumber":2,"parameterNumberName":"U-component_of_WINDS"},"data":[0,0,0,0,0,0,0,0,0,0,0,0,0,0,0,0,0,0,0,0,0,0,0,0,0,0,0,0,0,0,0,0,0,0,0,0,0,0,0,0,0,0,0,0,0,0,0,0,0,0,0,0,0,0,0,0,0,0,-2.3914,-2.3914,0,-2.3922,-2.3922,-2.3923,-2.3891,-2.389,-2.389,-2.3889,-2.3898,-2.3899,-2.39,0,0,0,0,0,0,0,0,0,0,0,0,0,-2.387,-2.3871,-2.3914,-2.3914,-2.3914,-2.3922,-2.3922,-2.3923,-2.3892,-2.389,-2.3889,-2.3888,-2.3897,-2.3899,-2.39,0,0,0,0,0,0,0,0,0,0,0,0,0,-2.3885,-2.3872,-2.3914,-2.39,-2.3898,-2.3922,-2.3922,-2.3923,-2.3892,-2.389,-2.3889,-2.3888,-2.3897,-2.3899,-2.39,-2.3939,0,0,-2.3905,-2.3906,0,0,0,0,0,0,0,0,-2.3884,-2.3887,-2.3902,-2.3901,-2.3899,-2.3904,-2.391,-2.3928,-2.3892,-2.3894,-2.3889,-2.3887,-2.3901,-2.3902,-2.3907,-2.3939,-2.3939,-2.3906,-2.3907,-2.3907,-2.3908,0,0,0,0,0,0,0,-2.3883,-2.3886,-2.3917,-2.3902,-2.39,-2.3893,-2.3893,-2.3914,-2.3906,-2.3894,-2.3892,-2.3893,-2.39,-2.3906,-2.3907,-2.3939,-2.3906,-2.3907,-2.3908,-2.3909,-2.4001,-2.4003,0,0,0,0,0,0,-2.3884,-2.3886,-2.3917,-2.3917,-2.3888,-2.3895,-2.3895,-2.3904,-2.3905,-2.3904,-2.3894,-2.3892,-2.3903,-2.3905,-2.3907,-2.395,-2.3907,-2.3909,-2.391,-2.4,-2.4001,-2.4003,0,0,0,0,0,0,-2.3883,-2.3887,-2.3917,-2.3901,-2.3904,-2.3897,-2.3907,-2.3905,-2.391,-2.3905,-2.3904,-2.3901,-2.3902,-2.3905,-2.393,-2.395,-2.391,-2.3911,-2.3998,-2.4,-2.4002,-2.4038,0,0,0,0,0,0,-2.3882,-2.3887,-2.3902,-2.3901,-2.3905,-2.394,-2.3908,-2.3906,-2.3913,-2.391,-2.3911,-2.391,-2.3901,-2.3928,-2.3932,-2.3952,-2.3912,-2.3996,-2.3999,-2.4002,-2.4035,-2.4041,-2.4047,0,0,0,0,0,-2.3881,-2.3912,-2.3903,-2.3907,-2.3923,-2.3941,-2.3943,-2.3932,-2.3915,-2.3929,-2.3926,-2.391,-2.3948,-2.3931,-2.3935,-2.3956,-2.3995,-2.3998,-2.4001,-2.4033,-2.404,-2.4047,0,0,0,0,0,0,-2.3916,-2.3912,-2.3901,-2.3934,-2.3938,-2.3936,-2.3954,-2.3941,-2.395,-2.3947,-2.3933,-2.3933,-2.3961,-2.3961,-2.3943,-2.3992,-2.3968,-2.3973,-2.3991,-2.3998,-2.4003,-2.4002,-2.3914,0,0,0,0,0,-2.3927,-2.3942,-2.3938,-2.3967,-2.3969,-2.3961,-2.3969,-2.396,-2.3964,-2.3965,-2.3964,-2.3969,-2.3981,-2.399,-2.4001,-2.4036,-2.4035,-2.4052,-2.4057,-2.4062,-2.4066,-2.4082,-2.4089,-2.4014,-2.4014,-2.4014,0,0,-2.3951,-2.3951,-2.3961,-2.3974,-2.3976,-2.3991,-2.3963,-2.3981,-2.3992,-2.3968,-2.3992,-2.3991,-2.3995,-2.4024,-2.4038,-2.4026,-2.4086,-2.4066,-2.407,-2.4071,-2.4086,-2.4093,-2.41,-2.4016,-2.4016,-2.4015,0,0,-2.4002,-2.4004,-2.4027,-2.4029,-2.4033,-2.4027,-2.4033,-2.4032,-2.4031,-2.4054,-2.4036,-2.4049,-2.4071,-2.4074,-2.4079,-2.413,-2.4115,-2.4134,-2.4163,-2.4179,-2.4185,-2.419,-2.4207,-2.4213,-2.4138,-2.4138,-2.4138,0,-2.4031,-2.4053,-2.404,-2.4059,-2.4064,-2.4043,-2.4066,-2.4069,-2.4077,-2.4081,-2.4067,-2.4094,-2.4095,-2.4124,-2.4136,-2.4142,-2.4147,-2.4133,-2.4185,-2.419,-2.4195,-2.4211,-2.4217,-2.414,-2.414,-2.4139,-2.4139,0,-2.4087,-2.4103,-2.4122,-2.4128,-2.4136,-2.4157,-2.4147,-2.4156,-2.4146,-2.4142,-2.4165,-2.4166,-2.4176,-2.4183,-2.4174,-2.4211,-2.4203,-2.4188,-2.4163,-2.4205,-2.4219,-2.4225,-2.4143,-2.4142,-2.4141,-2.4141,0,0,-2.416,-2.4159,-2.4166,-2.4167,-2.4169,-2.4181,-2.42,-2.421,-2.4218,-2.4223,-2.4238,-2.4257,-2.4243,-2.4248,-2.4239,-2.4254,-2.4292,-2.4237,-2.4236,-2.4245,-2.433,-2.434,-2.4347,-2.4283,-2.4284,-2.4285,-2.4329,0,-2.4209,-2.4241,-2.423,-2.4263,-2.4276,-2.4256,-2.4272,-2.4275,-2.4271,-2.4282,-2.4278,-2.4291,-2.4272,-2.4275,-2.4288,-2.4284,-2.4308,-2.4281,-2.4295,-2.4296,-2.4293,-2.4355,-2.4366,-2.4408,-2.4335,-2.4336,-2.4336,0,-2.4269,-2.4276,-2.431,-2.4308,-2.4313,-2.4328,-2.4335,-2.4346,-2.4348,-2.4345,-2.435,-2.4338,-2.4356,-2.4333,-2.4357,-2.4339,-2.4344,-2.4343,-2.4344,-2.4344,-2.4318,-2.4355,-2.4421,-2.4427,-2.4345,-2.4345,-2.4344,0,-2.4317,-2.4335,-2.4356,-2.4359,-2.4358,-2.4368,-2.4368,-2.4369,-2.4375,-2.4382,-2.4385,-2.4394,-2.4399,-2.4406,-2.4396,-2.438,-2.4421,-2.4398,-2.4418,-2.4418,-2.4426,-2.4426,-2.4493,-2.4433,-2.4433,-2.4432,-2.4432,0,-2.4371,-2.4392,-2.4377,-2.4391,-2.4414,-2.4401,-2.4424,-2.4421,-2.4422,-2.4434,-2.4418,-2.443,-2.4417,-2.4428,-2.4421,-2.4441,-2.4444,-2.444,-2.4438,-2.4441,-2.4441,-2.4443,-2.4439,-2.4434,-2.4434,-2.4433,-2.4433,0,-2.4427,-2.4418,-2.4441,-2.4437,-2.4437,-2.4453,-2.445,-2.4462,-2.4457,-2.4473,-2.4476,-2.4468,-2.4479,-2.4471,-2.4483,-2.4478,-2.4504,-2.4498,-2.4503,-2.45,-2.452,-2.4518,-2.459,-2.4598,-2.4534,-2.4535,-2.4536,0,-2.4461,-2.4477,-2.4474,-2.4481,-2.4482,-2.4493,-2.4499,-2.4487,-2.4493,-2.4496,-2.4508,-2.4518,-2.4525,-2.4544,-2.4539,-2.4548,-2.4541,-2.4566,-2.4543,-2.4545,-2.454,-2.4538,-2.4539,-2.457,-2.4571,-2.4572,-2.4572,0,-2.4523,-2.4517,-2.4526,-2.4532,-2.4539,-2.4544,-2.4548,-2.4555,-2.4542,-2.455,-2.4561,-2.4567,-2.4578,-2.4588,-2.4595,-2.4594,-2.4581,-2.458,-2.4585,-2.4587,-2.4588,-2.4586,-2.4514,-2.4578,-2.4577,-2.4577,-2.4577,-2.4576,-2.4568,-2.458,-2.4579,-2.4589,-2.459,-2.4594,-2.4604,-2.46,-2.4609,-2.4616,-2.4609,-2.4622,-2.4623,-2.463,-2.4632,-2.4642,-2.4631,-2.4639,-2.4641,-2.4642,-2.4644,-2.4588,-2.4643,-2.4643,-2.4643,-2.4643,-2.4643,0,-2.4626,-2.4625,-2.4634,-2.4639,-2.4646,-2.4633,-2.4636,-2.4643,-2.4654,-2.4656,-2.4663,-2.4675,-2.4684,-2.468,-2.4688,-2.4697,-2.469,-2.4699,-2.4697,-2.4697,-2.4654,-2.4648,-2.4704,-2.4704,-2.4703,-2.4703,-2.4703,-2.4703,-2.4658,-2.4676,-2.4671,-2.469,-2.4689,-2.4701,-2.4703,-2.4706,-2.4707,-2.4721,-2.4728,-2.4725,-2.4725,-2.4732,-2.4739,-2.4738,-2.4741,-2.4751,-2.4747,-2.4707,-2.47,-2.4695,-2.4689,-2.4752,-2.4752,-2.479,-2.479,-2.479]},{"header":{"parameterUnit":"m.s-1","parameterCategory":1,"la1":30.2991,"la2":30.254,"lo1":-89.0895,"lo2":-89.0444,"dy":0.0017,"dx":0.0017,"nx":28,"ny":28,"refTime":"2025-07-23T09:00:00:Z","depth":0,"parameterNumber":3,"parameterNumberName":"V-component_of_WINDS"},"data":[0,0,0,0,0,0,0,0,0,0,0,0,0,0,0,0,0,0,0,0,0,0,0,0,0,0,0,0,0,0,0,0,0,0,0,0,0,0,0,0,0,0,0,0,0,0,0,0,0,0,0,0,0,0,0,0,0,0,-1.6445,-1.6445,0,-1.6469,-1.647,-1.647,-1.6485,-1.6485,-1.6485,-1.6485,-1.6509,-1.651,-1.651,0,0,0,0,0,0,0,0,0,0,0,0,0,-1.6409,-1.6409,-1.6445,-1.6445,-1.6446,-1.6469,-1.647,-1.647,-1.6485,-1.6485,-1.6485,-1.6485,-1.6509,-1.6509,-1.651,0,0,0,0,0,0,0,0,0,0,0,0,0,-1.6428,-1.641,-1.6445,-1.6456,-1.6457,-1.6469,-1.647,-1.647,-1.6485,-1.6485,-1.6485,-1.6485,-1.6509,-1.6509,-1.651,-1.6513,0,0,-1.6513,-1.6513,0,0,0,0,0,0,0,0,-1.6427,-1.6429,-1.6454,-1.6455,-1.6457,-1.6474,-1.6466,-1.6484,-1.6485,-1.6474,-1.6485,-1.6485,-1.6497,-1.6499,-1.6503,-1.6514,-1.6515,-1.6513,-1.6513,-1.6514,-1.6514,0,0,0,0,0,0,0,-1.6426,-1.6428,-1.6455,-1.6454,-1.6456,-1.6459,-1.6462,-1.6469,-1.6485,-1.6475,-1.6476,-1.6479,-1.6498,-1.6502,-1.6504,-1.6515,-1.6513,-1.6514,-1.6514,-1.6514,-1.6528,-1.6528,0,0,0,0,0,0,-1.6423,-1.6427,-1.6454,-1.6455,-1.6442,-1.6459,-1.6463,-1.6469,-1.6485,-1.6487,-1.6479,-1.648,-1.6501,-1.6503,-1.6505,-1.6508,-1.6514,-1.6514,-1.6515,-1.6528,-1.6528,-1.6528,0,0,0,0,0,0,-1.6422,-1.6425,-1.6453,-1.6442,-1.6445,-1.646,-1.6466,-1.6469,-1.6474,-1.6488,-1.649,-1.6481,-1.6501,-1.6504,-1.6511,-1.6509,-1.6515,-1.6516,-1.6528,-1.6528,-1.6528,-1.6515,0,0,0,0,0,0,-1.6421,-1.6425,-1.6427,-1.6442,-1.6446,-1.6459,-1.6466,-1.6469,-1.6475,-1.6476,-1.649,-1.6493,-1.6501,-1.6509,-1.6511,-1.651,-1.6516,-1.6528,-1.6528,-1.6528,-1.6516,-1.6515,-1.6514,0,0,0,0,0,-1.6419,-1.6422,-1.6427,-1.643,-1.6449,-1.6459,-1.6461,-1.6472,-1.6475,-1.6476,-1.6485,-1.6492,-1.6509,-1.651,-1.6512,-1.6512,-1.6529,-1.6528,-1.6528,-1.6516,-1.6515,-1.6514,0,0,0,0,0,0,-1.6407,-1.6424,-1.6429,-1.6437,-1.6446,-1.6461,-1.6464,-1.647,-1.6478,-1.6479,-1.6491,-1.6494,-1.65,-1.6506,-1.6507,-1.6514,-1.6519,-1.652,-1.651,-1.6509,-1.6507,-1.6506,-1.6517,0,0,0,0,0,-1.6405,-1.6412,-1.6427,-1.6432,-1.6437,-1.6449,-1.6454,-1.6461,-1.6471,-1.6475,-1.6484,-1.6493,-1.65,-1.6505,-1.6512,-1.6517,-1.6519,-1.6518,-1.6516,-1.6515,-1.6515,-1.6517,-1.6516,-1.6527,-1.6527,-1.6527,0,0,-1.6401,-1.6411,-1.6415,-1.643,-1.6438,-1.6444,-1.6452,-1.6459,-1.6464,-1.6476,-1.6483,-1.649,-1.65,-1.6506,-1.6509,-1.6511,-1.6513,-1.6515,-1.6514,-1.6515,-1.6516,-1.6515,-1.6514,-1.6526,-1.6526,-1.6527,0,0,-1.6397,-1.6406,-1.6411,-1.6419,-1.643,-1.6438,-1.6439,-1.6453,-1.6458,-1.6465,-1.6474,-1.6479,-1.6492,-1.6499,-1.6504,-1.65,-1.6506,-1.6502,-1.6496,-1.6498,-1.6497,-1.6496,-1.6494,-1.6493,-1.6502,-1.6502,-1.6502,0,-1.6391,-1.6401,-1.6413,-1.6419,-1.6424,-1.6435,-1.6439,-1.6446,-1.6459,-1.6462,-1.6466,-1.648,-1.6488,-1.6495,-1.6494,-1.6498,-1.6498,-1.6501,-1.6496,-1.6495,-1.6495,-1.6493,-1.6492,-1.6502,-1.6502,-1.6502,-1.6502,0,-1.6392,-1.6399,-1.6402,-1.6414,-1.642,-1.6425,-1.6436,-1.644,-1.6447,-1.6454,-1.646,-1.647,-1.6479,-1.6481,-1.6487,-1.6488,-1.6489,-1.6494,-1.6499,-1.6493,-1.6491,-1.6491,-1.6501,-1.6501,-1.6501,-1.6501,0,0,-1.6382,-1.64,-1.64,-1.6406,-1.6419,-1.6424,-1.6429,-1.6437,-1.644,-1.6449,-1.6452,-1.6462,-1.6466,-1.6472,-1.6479,-1.648,-1.6475,-1.6484,-1.6485,-1.6482,-1.6475,-1.647,-1.6469,-1.6479,-1.6479,-1.6479,-1.6473,0,-1.638,-1.639,-1.6399,-1.6405,-1.6411,-1.642,-1.6424,-1.6432,-1.6439,-1.6444,-1.6451,-1.6457,-1.6463,-1.6466,-1.6468,-1.6475,-1.6474,-1.6476,-1.6482,-1.6482,-1.6478,-1.6469,-1.6465,-1.6459,-1.6473,-1.6473,-1.6473,0,-1.6379,-1.6386,-1.6393,-1.6404,-1.6407,-1.641,-1.6418,-1.6423,-1.6432,-1.6436,-1.6442,-1.6449,-1.6453,-1.6458,-1.6463,-1.6464,-1.6467,-1.6471,-1.6471,-1.6472,-1.6477,-1.6468,-1.6458,-1.6456,-1.6472,-1.6472,-1.6472,0,-1.637,-1.6382,-1.6387,-1.6391,-1.6404,-1.6406,-1.6411,-1.642,-1.6424,-1.6431,-1.6433,-1.644,-1.6444,-1.6449,-1.6457,-1.646,-1.6461,-1.6467,-1.6464,-1.6464,-1.6464,-1.6464,-1.6453,-1.6467,-1.6467,-1.6467,-1.6467,0,-1.6366,-1.6369,-1.6382,-1.6386,-1.6389,-1.6399,-1.6402,-1.6408,-1.6415,-1.6419,-1.6428,-1.6431,-1.6442,-1.6446,-1.6452,-1.6455,-1.6457,-1.646,-1.6461,-1.6459,-1.6458,-1.6461,-1.6461,-1.6466,-1.6466,-1.6466,-1.6466,0,-1.6357,-1.6366,-1.6372,-1.6383,-1.6386,-1.6388,-1.6397,-1.64,-1.6406,-1.6411,-1.6412,-1.6422,-1.6427,-1.6436,-1.6444,-1.6448,-1.6449,-1.6452,-1.6446,-1.6447,-1.6444,-1.6444,-1.6434,-1.6432,-1.6447,-1.6447,-1.6447,0,-1.6354,-1.6356,-1.6368,-1.6371,-1.6376,-1.6381,-1.6384,-1.6394,-1.6397,-1.6406,-1.6407,-1.6413,-1.6418,-1.6425,-1.6433,-1.6439,-1.6441,-1.6437,-1.6442,-1.6439,-1.644,-1.644,-1.6439,-1.6436,-1.6436,-1.6436,-1.6436,0,-1.6347,-1.6351,-1.6356,-1.6363,-1.6367,-1.6373,-1.6379,-1.6381,-1.6391,-1.6394,-1.64,-1.6403,-1.6411,-1.6416,-1.6422,-1.6427,-1.6432,-1.6434,-1.6434,-1.6431,-1.6427,-1.6428,-1.6443,-1.6434,-1.6434,-1.6435,-1.6435,-1.6435,-1.634,-1.6342,-1.635,-1.6355,-1.6361,-1.6366,-1.6368,-1.6375,-1.6379,-1.6386,-1.6391,-1.6395,-1.6402,-1.6411,-1.6415,-1.6418,-1.6421,-1.642,-1.642,-1.642,-1.6418,-1.6426,-1.6419,-1.6419,-1.6419,-1.6419,-1.6419,0,-1.6333,-1.6338,-1.6343,-1.6351,-1.6354,-1.6359,-1.6366,-1.6368,-1.6372,-1.6378,-1.6382,-1.6387,-1.6392,-1.6399,-1.6404,-1.6405,-1.6407,-1.6406,-1.6405,-1.6406,-1.6416,-1.6415,-1.6403,-1.6403,-1.6403,-1.6403,-1.6403,-1.6403,-1.633,-1.6333,-1.6338,-1.6343,-1.6348,-1.6353,-1.6355,-1.636,-1.6364,-1.6369,-1.6373,-1.6377,-1.6383,-1.6388,-1.6392,-1.6394,-1.6395,-1.6392,-1.6395,-1.6404,-1.6406,-1.6407,-1.6407,-1.6393,-1.6393,-1.6385,-1.6385,-1.6385]}]]